Location: Avully
(45.9633°N, 6.0228°E)
Time: 13:03:32
(UTC+00:00)

Cosmos 468 Rocket - Pass Details

Date: 23 May 2024
Orbit: 741 x 777 km, 74.0° (Epoch: 16 June)

Event Time Altitude Azimuth Distance (km) Brightness Sun altitude
Rises 00:40:36 0° 336° (NNW) 3,268 8.0 -21.6°
Reaches altitude 10° 00:43:00 10° 335° (NNW) 2,333 7.1 -21.5°
Maximum altitude 00:48:17 73° 252° (WSW) 811 3.9 -21.2°
Enters shadow 00:49:49 46° 181° (S) 1,032 4.2 -21.1°
